Regional Weather Roundup
Issued by NWS

Home | Current Version | Previous Version | Text Only | Print | Product List | Glossary Off
Versions: 1 2 3 4 5 6 7 8 9 10 11 12 13 14 15 16 17 18 19 20 21 22 23 24 25 26 27 28 29 30 31 32 33 34 35 36 37 38 39 40 41 42 43 44 45 46 47 48 49 50

000
ASUS43 KFSD 300710
RWRSD

WEATHER ROUNDUP FOR SOUTH DAKOTA
NATIONAL WEATHER SERVICE SIOUX FALLS SD
200 AM CDT SUN AUG 30 2015

NOTE: "FAIR" INDICATES FEW OR NO CLOUDS BELOW 12,000 FEET WITH NO
SIGNIFICANT WEATHER AND/OR OBSTRUCTIONS TO VISIBILITY.


SDZ001>005-009-010-012>017-300800-
NORTHWEST AND NORTH CENTRAL SOUTH DAKOTA

CITY           SKY/WX    TMP DP  RH WIND       PRES   REMARKS
BUFFALO          N/A     69  51  52 S9        29.77F
FAITH            N/A     66  54  65 S14       29.84F
MOBRIDGE       PTCLDY    70  66  87 SE10      29.82F
$$

SDZ012>016-024>037-041>051-057-063-072>074-300800-
SOUTHWEST AND SOUTH CENTRAL SOUTH DAKOTA

CITY           SKY/WX    TMP DP  RH WIND       PRES   REMARKS
RAPID CTY ARPT PTCLDY    70  44  39 S8        29.90F
PIERRE         CLEAR     74  58  57 S7        29.85S
CUSTER         PTCLDY    69  35  28 VRB6      30.09F
ELLSWORTH AFB  PTCLDY    72  45  38 S9        29.88F
PHILIP         PTCLDY    71  51  49 S8        29.87S
PINE RIDGE     PTCLDY    74  47  38 S15G28    29.96F
WINNER         FAIR      73  59  61 S17       29.92S
$$

SDZ004>011-016>023-039-040-300800-
NORTHEAST SOUTH DAKOTA

CITY           SKY/WX    TMP DP  RH WIND       PRES   REMARKS
ABERDEEN       CLEAR     65  63  93 S9        29.87F
WATERTOWN      MOCLDY    63  62  97 S12       29.94S
BROOKINGS      CLOUDY    64  61  88 S12       29.99S
SISSETON         N/A     65  63  93 S7        29.87F
$$

SDZ017-020-022-023-036>040-048>070-300800-
SOUTHEAST SOUTH DAKOTA

CITY           SKY/WX    TMP DP  RH WIND       PRES   REMARKS
SIOUX FALLS    PTCLDY    63  60  90 S9        30.00S
HURON          CLEAR     66  65  96 S12       29.90F
CHAMBERLAIN    CLEAR     66  62  85 S6        29.91F
MITCHELL       CLEAR     66  65  96 S10       29.94S
YANKTON        CLEAR     63  61  94 SE6       29.98S
$$

ABBREVIATIONS USED IN REMARKS
   TC - TEMPERATURE IN CELSIUS
  WCI - WIND CHILL INDEX
   HX - HEAT INDEX
  VSB - VISIBILITY



USA.gov is the U.S. government's official web portal to all federal, state and local government web resources and services.